Hobbs, NM

10:33 PM MDT on August 25, 2016 (GMT -0600)
Lea County Regional

Weather History for KHOB - December, 2012

Change the Weather History Date:

Monday, December 24, 2012

  Actual Average Record
Temperature  
Mean Temperature 42 °F -  
Max Temperature 59 °F 53 °F 77 °F (1955)
Min Temperature 26 °F 26 °F 6 °F (2004)
Degree Days  
Heating Degree Days 22    
Moisture  
Dew Point 14 °F    
Average Humidity 30    
Maximum Humidity 45    
Minimum Humidity 18    
Precipitation  
Precipitation 0.00 in - - ()
Sea Level Pressure  
Sea Level Pressure 29.83 in    
Wind  
Wind Speed 8 mph (SW)    
Max Wind Speed 24 mph    
Max Gust Speed 34 mph    
Visibility 10 miles    
Events      
Averages and records for this station are not official NWS values.
T = Trace of Precipitation, MM = Missing Value Source: NWS Daily Summary

Daily Weather History Graph

Daily Weather History Graph

Search for Another Location

Airport or City:

Trip Planner

Search our weather history database for the weather conditions in past years. The results will help you decide how hot, cold, wet, or windy it might be!

Date:

Astronomy

Dec. 24, 2012 Rise Set
Actual Time 6:52 AM MST 4:52 PM MST
Civil Twilight 6:25 AM MST 5:20 PM MST
Nautical Twilight 5:54 AM MST 5:51 PM MST
Astronomical Twilight 5:24 AM MST 6:21 PM MST
Moon 2:18 PM MST (12/24) 3:37 AM MST (12/24)
Length of Visible Light 10h 54m
Length of Day
10h 00m
Waxing Gibbous, 89% of the Moon is Illuminated
Dec 24
Waxing Gibbous
Dec 28
Full
Jan 4
Last Quarter
Jan 11
New
Jan 18
First Quarter

Hourly Weather History & Observations

Time (MST) Temp. Windchill Dew Point Humidity Pressure Visibility Wind Dir Wind Speed Gust Speed Precip Events Conditions
12:15 AM 37.4 °F 32.8 °F 6.8 °F 28% 30.01 in 10.0 mi West 5.8 mph - N/A   Clear
12:35 AM 35.6 °F 29.9 °F 6.8 °F 30% 30.00 in 10.0 mi WNW 6.9 mph - N/A   Clear
12:55 AM 35.6 °F 29.9 °F 5.0 °F 28% 29.99 in 10.0 mi WNW 6.9 mph - N/A   Clear
1:15 AM 35.6 °F 29.2 °F 6.8 °F 30% 29.99 in 10.0 mi WNW 8.1 mph - N/A   Clear
1:35 AM 33.8 °F 27.0 °F 6.8 °F 32% 29.99 in 10.0 mi NW 8.1 mph - N/A   Clear
1:55 AM 32.0 °F 24.8 °F 5.0 °F 32% 29.98 in 10.0 mi NNW 8.1 mph - N/A   Clear
2:15 AM 30.2 °F 21.9 °F 5.0 °F 34% 29.99 in 10.0 mi NW 9.2 mph - N/A   Clear
2:55 AM 35.6 °F 27.5 °F 6.8 °F 30% 29.98 in 10.0 mi NW 11.5 mph - N/A   Clear
3:15 AM 32.0 °F 24.2 °F 5.0 °F 32% 29.98 in 10.0 mi NW 9.2 mph - N/A   Clear
3:35 AM 32.0 °F 24.2 °F 5.0 °F 32% 29.97 in 10.0 mi NW 9.2 mph - N/A   Clear
3:55 AM 32.0 °F 24.8 °F 5.0 °F 32% 29.97 in 10.0 mi NW 8.1 mph - N/A   Clear
5:50 AM 26.6 °F 21.2 °F 6.8 °F 43% 29.96 in 10.0 mi NW 4.6 mph - N/A   Clear
6:45 AM 28.4 °F 20.4 °F 6.8 °F 40% 29.96 in 10.0 mi West 8.1 mph - N/A   Clear
7:50 AM 32.0 °F - 8.6 °F 38% 29.95 in 10.0 mi Calm Calm - N/A   Clear
8:50 AM 42.8 °F 41.1 °F 8.6 °F 25% 29.97 in 10.0 mi Variable 3.5 mph - N/A   Clear
9:50 AM 48.2 °F - 10.4 °F 22% 29.95 in 10.0 mi ESE 10.4 mph - N/A   Clear
10:50 AM 53.6 °F - 10.4 °F 18% 29.94 in 10.0 mi SE 8.1 mph - N/A   Clear
11:50 AM 53.6 °F - 10.4 °F 18% 29.89 in 10.0 mi SSE 8.1 mph - N/A   Clear
12:50 PM 57.2 °F - 19.4 °F 23% 29.82 in 10.0 mi South 9.2 mph - N/A   Mostly Cloudy
1:50 PM 57.2 °F - 19.4 °F 23% 29.79 in 10.0 mi South 9.2 mph - N/A   Overcast
2:50 PM 59.0 °F - 23.0 °F 25% 29.76 in 10.0 mi South 13.8 mph - N/A   Overcast
3:50 PM 57.2 °F - 19.4 °F 23% 29.74 in 10.0 mi South 8.1 mph - N/A   Overcast
4:50 PM 53.6 °F - 17.6 °F 24% 29.72 in 10.0 mi SSE 5.8 mph - N/A   Overcast
5:15 PM 51.8 °F - 17.6 °F 26% 29.72 in 10.0 mi South 6.9 mph - N/A   Clear
5:35 PM 51.8 °F - 17.6 °F 26% 29.71 in 10.0 mi South 8.1 mph - N/A   Clear
5:45 PM 53.6 °F - 17.6 °F 24% 29.71 in 10.0 mi South 8.1 mph - N/A   Overcast
5:55 PM 53.6 °F - 17.6 °F 24% 29.71 in 10.0 mi SSW 8.1 mph - N/A   Clear
6:15 PM 51.8 °F - 19.4 °F 28% 29.71 in 10.0 mi SSW 6.9 mph - N/A   Clear
6:35 PM 50.0 °F - 19.4 °F 30% 29.70 in 10.0 mi SSW 9.2 mph - N/A   Clear
6:55 PM 48.2 °F - 19.4 °F 32% 29.70 in 10.0 mi SSW 8.1 mph - N/A   Clear
7:15 PM 48.2 °F - 19.4 °F 32% 29.70 in 10.0 mi SW 9.2 mph - N/A   Clear
7:35 PM 48.2 °F - 19.4 °F 32% 29.69 in 10.0 mi SW 6.9 mph - N/A   Clear
7:55 PM 46.4 °F 42.4 °F 17.6 °F 32% 29.69 in 10.0 mi SW 8.1 mph - N/A   Clear
8:15 PM 44.6 °F 39.7 °F 17.6 °F 34% 29.69 in 10.0 mi SW 9.2 mph - N/A   Clear
8:35 PM 44.6 °F 39.7 °F 17.6 °F 34% 29.68 in 10.0 mi SSW 9.2 mph - N/A   Clear
8:55 PM 41.0 °F 35.8 °F 17.6 °F 39% 29.68 in 10.0 mi SW 8.1 mph - N/A   Clear
9:15 PM 39.2 °F 34.2 °F 17.6 °F 42% 29.67 in 10.0 mi WSW 6.9 mph - N/A   Clear
9:35 PM 37.4 °F - 17.6 °F 45% 29.67 in 10.0 mi Calm Calm - N/A   Clear
10:35 PM 48.2 °F - 19.4 °F 32% 29.66 in 10.0 mi SW 16.1 mph - N/A   Clear
11:55 PM 50.0 °F - 23.0 °F 35% 29.66 in 10.0 mi WSW 24.2 mph 34.5 mph N/A   Scattered Clouds